Bedford, MA

2:44 PM EDT on May 24, 2017 (GMT -0400)
Hanscom

Weather History for KBED - September, 2012

Change the Weather History Date:

Thursday, September 6, 2012

  Actual Average Record
Temperature  
Mean Temperature 70 °F -  
Max Temperature 79 °F 75 °F 91 °F (1983)
Min Temperature 60 °F 53 °F 39 °F (2000)
Cooling Degree Days 4    
Growing Degree Days 20 (Base 50)    
Moisture  
Dew Point 64 °F    
Average Humidity 86    
Maximum Humidity 100    
Minimum Humidity 62    
Precipitation  
Precipitation 0.00 in - - ()
Sea Level Pressure  
Sea Level Pressure 29.89 in    
Wind  
Wind Speed 1 mph (SSW)    
Max Wind Speed 8 mph    
Max Gust Speed -    
Visibility 8 miles    
Events Fog    
Averages and records for this station are not official NWS values.
T = Trace of Precipitation, MM = Missing Value Source: NWS Daily Summary

Daily Weather History Graph

Daily Weather History Graph

Search for Another Location

Airport or City:

Trip Planner

Search our weather history database for the weather conditions in past years. The results will help you decide how hot, cold, wet, or windy it might be!

Date:

Astronomy

Sep. 06, 2012 Rise Set
Actual Time 6:15 AM EDT 7:09 PM EDT
Civil Twilight 5:47 AM EDT 7:38 PM EDT
Nautical Twilight 5:13 AM EDT 8:12 PM EDT
Astronomical Twilight 4:37 AM EDT 8:47 PM EDT
Moon 10:09 PM EDT (9/6) 12:21 PM EDT (9/6)
Length of Visible Light 13h 51m
Length of Day
12h 53m
Waning Gibbous, 67% of the Moon is Illuminated
Sep 6
Waning Gibbous
Sep 8
Last Quarter
Sep 15
New
Sep 22
First Quarter
Sep 29
Full

Hourly Weather History & Observations

Time (EDT) Temp. Dew Point Humidity Pressure Visibility Wind Dir Wind Speed Gust Speed Precip Events Conditions
12:35 AM 68.0 °F 62.6 °F 83% 29.83 in 10.0 mi Calm Calm - N/A   Overcast
12:56 AM 68.0 °F 63.0 °F 84% 29.87 in 10.0 mi Calm Calm - N/A   Overcast
1:56 AM 66.9 °F 64.0 °F 90% 29.88 in 10.0 mi Calm Calm - N/A   Overcast
2:56 AM 66.0 °F 64.0 °F 93% 29.88 in 10.0 mi WNW 3.5 mph - N/A   Mostly Cloudy
3:56 AM 66.0 °F 64.0 °F 93% 29.88 in 10.0 mi Calm Calm - N/A   Overcast
4:56 AM 66.0 °F 64.0 °F 93% 29.88 in 10.0 mi Calm Calm - N/A   Overcast
5:41 AM 64.4 °F 62.6 °F 94% 29.86 in 1.5 mi Calm Calm - N/A   Mostly Cloudy
5:50 AM 62.6 °F 62.6 °F 100% 29.86 in 3.0 mi Calm Calm - N/A   Mostly Cloudy
5:54 AM 64.4 °F 62.6 °F 94% 29.86 in 2.0 mi Calm Calm - N/A   Scattered Clouds
5:56 AM 64.0 °F 62.1 °F 93% 29.90 in 1.8 mi Calm Calm - N/A   Scattered Clouds
6:04 AM 62.6 °F 62.6 °F 100% 29.87 in 3.0 mi Calm Calm - N/A   Partly Cloudy
6:06 AM 62.6 °F 62.6 °F 100% 29.87 in 0.8 mi Calm Calm - N/A   Scattered Clouds
6:12 AM 62.6 °F 62.6 °F 100% 29.87 in 0.2 mi Calm Calm - N/A Fog Fog
6:19 AM 60.8 °F 60.8 °F 100% 29.87 in 0.8 mi Calm Calm - N/A   Mist
6:27 AM 62.6 °F 62.6 °F 100% 29.88 in 1.8 mi Calm Calm - N/A   Partly Cloudy
6:34 AM 62.6 °F 60.8 °F 94% 29.88 in 10.0 mi Calm Calm - N/A   Partly Cloudy
6:56 AM 63.0 °F 62.1 °F 97% 29.91 in 10.0 mi Calm Calm - N/A   Partly Cloudy
7:56 AM 66.9 °F 64.9 °F 93% 29.94 in 10.0 mi SW 3.5 mph - N/A   Mostly Cloudy
8:56 AM 70.0 °F 63.0 °F 78% 29.93 in 10.0 mi Calm Calm - N/A   Mostly Cloudy
9:56 AM 71.1 °F 63.0 °F 75% 29.93 in 10.0 mi Calm Calm - N/A   Mostly Cloudy
10:56 AM 73.9 °F 62.1 °F 66% 29.93 in 10.0 mi WSW 8.1 mph - N/A   Clear
11:56 AM 73.9 °F 64.0 °F 71% 29.91 in 10.0 mi SW 6.9 mph - N/A   Scattered Clouds
12:56 PM 75.9 °F 64.0 °F 67% 29.89 in 10.0 mi Variable 4.6 mph - N/A   Partly Cloudy
1:56 PM 75.9 °F 64.9 °F 69% 29.89 in 10.0 mi SW 3.5 mph - N/A   Scattered Clouds
2:56 PM 79.0 °F 64.9 °F 62% 29.88 in 10.0 mi SSW 6.9 mph - N/A   Scattered Clouds
3:56 PM 78.1 °F 64.9 °F 64% 29.88 in 10.0 mi SSW 5.8 mph - N/A   Partly Cloudy
4:56 PM 77.0 °F 64.9 °F 66% 29.87 in 10.0 mi South 6.9 mph - N/A   Clear
5:56 PM 75.9 °F 66.0 °F 71% 29.88 in 10.0 mi SSW 6.9 mph - N/A   Clear
6:56 PM 73.9 °F 66.0 °F 76% 29.88 in 10.0 mi South 5.8 mph - N/A   Overcast
7:56 PM 71.1 °F 66.0 °F 84% 29.90 in 10.0 mi SSW 3.5 mph - N/A   Clear
8:56 PM 69.1 °F 66.0 °F 90% 29.90 in 10.0 mi SW 3.5 mph - N/A   Clear
9:56 PM 68.0 °F 66.0 °F 93% 29.89 in 10.0 mi SSW 3.5 mph - N/A   Clear
10:56 PM 68.0 °F 66.0 °F 93% 29.89 in 10.0 mi Calm Calm - N/A   Clear
11:56 PM 66.2 °F 64.4 °F 94% 29.86 in 10.0 mi SSE 4.6 mph - N/A   Clear